Index of /20260505/WXO-DD/model_caps/3km/12/037
Name Last modified Size Description
Parent Directory -
20260505T12Z_MSC_CAPS_AbsoluteVorticity_IsbL-0250_RLatLon0.03_PT037H.grib2 2026-05-05 18:22 1.0M
20260505T12Z_MSC_CAPS_AbsoluteVorticity_IsbL-0500_RLatLon0.03_PT037H.grib2 2026-05-05 18:22 1.1M
20260505T12Z_MSC_CAPS_AbsoluteVorticity_IsbL-0700_RLatLon0.03_PT037H.grib2 2026-05-05 18:22 1.3M
20260505T12Z_MSC_CAPS_AbsoluteVorticity_IsbL-0850_RLatLon0.03_PT037H.grib2 2026-05-05 18:22 1.3M
20260505T12Z_MSC_CAPS_AbsoluteVorticity_IsbL-1000_RLatLon0.03_PT037H.grib2 2026-05-05 18:22 1.7M
20260505T12Z_MSC_CAPS_AirDensity_AGL-120m_RLatLon0.03_PT037H.grib2 2026-05-05 18:22 1.4M
20260505T12Z_MSC_CAPS_AirDensity_AGL-40m_RLatLon0.03_PT037H.grib2 2026-05-05 18:22 1.4M
20260505T12Z_MSC_CAPS_AirDensity_AGL-80m_RLatLon0.03_PT037H.grib2 2026-05-05 18:22 1.4M
20260505T12Z_MSC_CAPS_AirTemp_AGL-120m_RLatLon0.03_PT037H.grib2 2026-05-05 18:22 1.8M
20260505T12Z_MSC_CAPS_AirTemp_AGL-2m_RLatLon0.03_PT037H.grib2 2026-05-05 18:22 1.7M
20260505T12Z_MSC_CAPS_AirTemp_AGL-40m_RLatLon0.03_PT037H.grib2 2026-05-05 18:22 1.9M
20260505T12Z_MSC_CAPS_AirTemp_AGL-80m_RLatLon0.03_PT037H.grib2 2026-05-05 18:22 1.8M
20260505T12Z_MSC_CAPS_AirTemp_IsbL-0050_RLatLon0.03_PT037H.grib2 2026-05-05 18:22 685K
20260505T12Z_MSC_CAPS_AirTemp_IsbL-0100_RLatLon0.03_PT037H.grib2 2026-05-05 18:22 946K
20260505T12Z_MSC_CAPS_AirTemp_IsbL-0150_RLatLon0.03_PT037H.grib2 2026-05-05 18:22 745K
20260505T12Z_MSC_CAPS_AirTemp_IsbL-0175_RLatLon0.03_PT037H.grib2 2026-05-05 18:22 775K
20260505T12Z_MSC_CAPS_AirTemp_IsbL-0200_RLatLon0.03_PT037H.grib2 2026-05-05 18:22 802K
20260505T12Z_MSC_CAPS_AirTemp_IsbL-0225_RLatLon0.03_PT037H.grib2 2026-05-05 18:22 799K
20260505T12Z_MSC_CAPS_AirTemp_IsbL-0250_RLatLon0.03_PT037H.grib2 2026-05-05 18:22 1.0M
20260505T12Z_MSC_CAPS_AirTemp_IsbL-0275_RLatLon0.03_PT037H.grib2 2026-05-05 18:22 1.0M
20260505T12Z_MSC_CAPS_AirTemp_IsbL-0300_RLatLon0.03_PT037H.grib2 2026-05-05 18:22 1.0M
20260505T12Z_MSC_CAPS_AirTemp_IsbL-0350_RLatLon0.03_PT037H.grib2 2026-05-05 18:22 752K
20260505T12Z_MSC_CAPS_AirTemp_IsbL-0400_RLatLon0.03_PT037H.grib2 2026-05-05 18:22 754K
20260505T12Z_MSC_CAPS_AirTemp_IsbL-0450_RLatLon0.03_PT037H.grib2 2026-05-05 18:22 775K
20260505T12Z_MSC_CAPS_AirTemp_IsbL-0500_RLatLon0.03_PT037H.grib2 2026-05-05 18:22 789K
20260505T12Z_MSC_CAPS_AirTemp_IsbL-0550_RLatLon0.03_PT037H.grib2 2026-05-05 18:22 800K
20260505T12Z_MSC_CAPS_AirTemp_IsbL-0600_RLatLon0.03_PT037H.grib2 2026-05-05 18:22 815K
20260505T12Z_MSC_CAPS_AirTemp_IsbL-0650_RLatLon0.03_PT037H.grib2 2026-05-05 18:22 851K
20260505T12Z_MSC_CAPS_AirTemp_IsbL-0700_RLatLon0.03_PT037H.grib2 2026-05-05 18:22 891K
20260505T12Z_MSC_CAPS_AirTemp_IsbL-0750_RLatLon0.03_PT037H.grib2 2026-05-05 18:22 924K
20260505T12Z_MSC_CAPS_AirTemp_IsbL-0800_RLatLon0.03_PT037H.grib2 2026-05-05 18:22 1.1M
20260505T12Z_MSC_CAPS_AirTemp_IsbL-0850_RLatLon0.03_PT037H.grib2 2026-05-05 18:22 1.1M
20260505T12Z_MSC_CAPS_AirTemp_IsbL-0875_RLatLon0.03_PT037H.grib2 2026-05-05 18:22 1.1M
20260505T12Z_MSC_CAPS_AirTemp_IsbL-0900_RLatLon0.03_PT037H.grib2 2026-05-05 18:22 1.1M
20260505T12Z_MSC_CAPS_AirTemp_IsbL-0925_RLatLon0.03_PT037H.grib2 2026-05-05 18:22 1.1M
20260505T12Z_MSC_CAPS_AirTemp_IsbL-0950_RLatLon0.03_PT037H.grib2 2026-05-05 18:22 1.1M
20260505T12Z_MSC_CAPS_AirTemp_IsbL-0970_RLatLon0.03_PT037H.grib2 2026-05-05 18:22 1.2M
20260505T12Z_MSC_CAPS_AirTemp_IsbL-0985_RLatLon0.03_PT037H.grib2 2026-05-05 18:22 1.0M
20260505T12Z_MSC_CAPS_AirTemp_IsbL-1000_RLatLon0.03_PT037H.grib2 2026-05-05 18:22 1.0M
20260505T12Z_MSC_CAPS_AirTemp_IsbL-1015_RLatLon0.03_PT037H.grib2 2026-05-05 18:22 1.1M
20260505T12Z_MSC_CAPS_Albedo_Sfc_RLatLon0.03_PT037H.grib2 2026-05-05 18:22 2.7M
20260505T12Z_MSC_CAPS_CAPE_Sfc_RLatLon0.03_PT037H.grib2 2026-05-05 18:22 277K
20260505T12Z_MSC_CAPS_CloudWater_EAtm_RLatLon0.03_PT037H.grib2 2026-05-05 18:22 1.5M
20260505T12Z_MSC_CAPS_ConvectivePrecip-Accum_Sfc_RLatLon0.03_PT037H.grib2 2026-05-05 18:22 4.7M
20260505T12Z_MSC_CAPS_DewPointDepression_AGL-120m_RLatLon0.03_PT037H.grib2 2026-05-05 18:22 2.2M
20260505T12Z_MSC_CAPS_DewPointDepression_AGL-2m_RLatLon0.03_PT037H.grib2 2026-05-05 18:22 2.3M
20260505T12Z_MSC_CAPS_DewPointDepression_AGL-40m_RLatLon0.03_PT037H.grib2 2026-05-05 18:22 2.3M
20260505T12Z_MSC_CAPS_DewPointDepression_AGL-80m_RLatLon0.03_PT037H.grib2 2026-05-05 18:22 2.2M
20260505T12Z_MSC_CAPS_DewPointDepression_IsbL-0050_RLatLon0.03_PT037H.grib2 2026-05-05 18:22 1.9K
20260505T12Z_MSC_CAPS_DewPointDepression_IsbL-0100_RLatLon0.03_PT037H.grib2 2026-05-05 18:22 52K
20260505T12Z_MSC_CAPS_DewPointDepression_IsbL-0150_RLatLon0.03_PT037H.grib2 2026-05-05 18:22 43K
20260505T12Z_MSC_CAPS_DewPointDepression_IsbL-0175_RLatLon0.03_PT037H.grib2 2026-05-05 18:22 212K
20260505T12Z_MSC_CAPS_DewPointDepression_IsbL-0200_RLatLon0.03_PT037H.grib2 2026-05-05 18:22 429K
20260505T12Z_MSC_CAPS_DewPointDepression_IsbL-0225_RLatLon0.03_PT037H.grib2 2026-05-05 18:22 609K
20260505T12Z_MSC_CAPS_DewPointDepression_IsbL-0250_RLatLon0.03_PT037H.grib2 2026-05-05 18:22 847K
20260505T12Z_MSC_CAPS_DewPointDepression_IsbL-0275_RLatLon0.03_PT037H.grib2 2026-05-05 18:22 1.0M
20260505T12Z_MSC_CAPS_DewPointDepression_IsbL-0300_RLatLon0.03_PT037H.grib2 2026-05-05 18:22 1.1M
20260505T12Z_MSC_CAPS_DewPointDepression_IsbL-0350_RLatLon0.03_PT037H.grib2 2026-05-05 18:22 1.1M
20260505T12Z_MSC_CAPS_DewPointDepression_IsbL-0400_RLatLon0.03_PT037H.grib2 2026-05-05 18:22 1.1M
20260505T12Z_MSC_CAPS_DewPointDepression_IsbL-0450_RLatLon0.03_PT037H.grib2 2026-05-05 18:22 1.2M
20260505T12Z_MSC_CAPS_DewPointDepression_IsbL-0500_RLatLon0.03_PT037H.grib2 2026-05-05 18:22 1.2M
20260505T12Z_MSC_CAPS_DewPointDepression_IsbL-0550_RLatLon0.03_PT037H.grib2 2026-05-05 18:22 1.2M
20260505T12Z_MSC_CAPS_DewPointDepression_IsbL-0600_RLatLon0.03_PT037H.grib2 2026-05-05 18:22 1.3M
20260505T12Z_MSC_CAPS_DewPointDepression_IsbL-0650_RLatLon0.03_PT037H.grib2 2026-05-05 18:22 1.3M
20260505T12Z_MSC_CAPS_DewPointDepression_IsbL-0700_RLatLon0.03_PT037H.grib2 2026-05-05 18:22 1.3M
20260505T12Z_MSC_CAPS_DewPointDepression_IsbL-0750_RLatLon0.03_PT037H.grib2 2026-05-05 18:22 1.4M
20260505T12Z_MSC_CAPS_DewPointDepression_IsbL-0800_RLatLon0.03_PT037H.grib2 2026-05-05 18:22 1.4M
20260505T12Z_MSC_CAPS_DewPointDepression_IsbL-0850_RLatLon0.03_PT037H.grib2 2026-05-05 18:22 1.4M
20260505T12Z_MSC_CAPS_DewPointDepression_IsbL-0875_RLatLon0.03_PT037H.grib2 2026-05-05 18:22 1.4M
20260505T12Z_MSC_CAPS_DewPointDepression_IsbL-0900_RLatLon0.03_PT037H.grib2 2026-05-05 18:22 1.4M
20260505T12Z_MSC_CAPS_DewPointDepression_IsbL-0925_RLatLon0.03_PT037H.grib2 2026-05-05 18:22 1.4M
20260505T12Z_MSC_CAPS_DewPointDepression_IsbL-0950_RLatLon0.03_PT037H.grib2 2026-05-05 18:22 1.4M
20260505T12Z_MSC_CAPS_DewPointDepression_IsbL-0970_RLatLon0.03_PT037H.grib2 2026-05-05 18:22 1.4M
20260505T12Z_MSC_CAPS_DewPointDepression_IsbL-0985_RLatLon0.03_PT037H.grib2 2026-05-05 18:22 1.4M
20260505T12Z_MSC_CAPS_DewPointDepression_IsbL-1000_RLatLon0.03_PT037H.grib2 2026-05-05 18:22 1.4M
20260505T12Z_MSC_CAPS_DewPointDepression_IsbL-1015_RLatLon0.03_PT037H.grib2 2026-05-05 18:22 1.4M
20260505T12Z_MSC_CAPS_DewPoint_AGL-120m_RLatLon0.03_PT037H.grib2 2026-05-05 18:22 3.8M
20260505T12Z_MSC_CAPS_DewPoint_AGL-2m_RLatLon0.03_PT037H.grib2 2026-05-05 18:22 1.8M
20260505T12Z_MSC_CAPS_DewPoint_AGL-40m_RLatLon0.03_PT037H.grib2 2026-05-05 18:22 3.8M
20260505T12Z_MSC_CAPS_DewPoint_AGL-80m_RLatLon0.03_PT037H.grib2 2026-05-05 18:22 3.8M
20260505T12Z_MSC_CAPS_DownwardLongwaveRadiationFlux-Accum_Sfc_RLatLon0.03_PT037H.grib2 2026-05-05 18:22 2.6M
20260505T12Z_MSC_CAPS_DownwardShortwaveRadiationFlux-Accum_NTAtm_RLatLon0.03_PT037H.grib2 2026-05-05 18:22 389K
20260505T12Z_MSC_CAPS_DownwardShortwaveRadiationFlux-Accum_Sfc_RLatLon0.03_PT037H.grib2 2026-05-05 18:22 3.0M
20260505T12Z_MSC_CAPS_FreezingRain-Accum_Sfc_RLatLon0.03_PT037H.grib2 2026-05-05 18:22 1.0M
20260505T12Z_MSC_CAPS_GeopotentialHeight_IsbL-0050_RLatLon0.03_PT037H.grib2 2026-05-05 18:22 822K
20260505T12Z_MSC_CAPS_GeopotentialHeight_IsbL-0100_RLatLon0.03_PT037H.grib2 2026-05-05 18:22 811K
20260505T12Z_MSC_CAPS_GeopotentialHeight_IsbL-0150_RLatLon0.03_PT037H.grib2 2026-05-05 18:22 602K
20260505T12Z_MSC_CAPS_GeopotentialHeight_IsbL-0175_RLatLon0.03_PT037H.grib2 2026-05-05 18:22 716K
20260505T12Z_MSC_CAPS_GeopotentialHeight_IsbL-0200_RLatLon0.03_PT037H.grib2 2026-05-05 18:22 739K
20260505T12Z_MSC_CAPS_GeopotentialHeight_IsbL-0225_RLatLon0.03_PT037H.grib2 2026-05-05 18:22 755K
20260505T12Z_MSC_CAPS_GeopotentialHeight_IsbL-0250_RLatLon0.03_PT037H.grib2 2026-05-05 18:22 767K
20260505T12Z_MSC_CAPS_GeopotentialHeight_IsbL-0275_RLatLon0.03_PT037H.grib2 2026-05-05 18:22 770K
20260505T12Z_MSC_CAPS_GeopotentialHeight_IsbL-0300_RLatLon0.03_PT037H.grib2 2026-05-05 18:22 776K
20260505T12Z_MSC_CAPS_GeopotentialHeight_IsbL-0350_RLatLon0.03_PT037H.grib2 2026-05-05 18:22 778K
20260505T12Z_MSC_CAPS_GeopotentialHeight_IsbL-0400_RLatLon0.03_PT037H.grib2 2026-05-05 18:22 774K
20260505T12Z_MSC_CAPS_GeopotentialHeight_IsbL-0450_RLatLon0.03_PT037H.grib2 2026-05-05 18:22 768K
20260505T12Z_MSC_CAPS_GeopotentialHeight_IsbL-0500_RLatLon0.03_PT037H.grib2 2026-05-05 18:22 759K
20260505T12Z_MSC_CAPS_GeopotentialHeight_IsbL-0550_RLatLon0.03_PT037H.grib2 2026-05-05 18:22 638K
20260505T12Z_MSC_CAPS_GeopotentialHeight_IsbL-0600_RLatLon0.03_PT037H.grib2 2026-05-05 18:22 635K
20260505T12Z_MSC_CAPS_GeopotentialHeight_IsbL-0650_RLatLon0.03_PT037H.grib2 2026-05-05 18:22 810K
20260505T12Z_MSC_CAPS_GeopotentialHeight_IsbL-0700_RLatLon0.03_PT037H.grib2 2026-05-05 18:22 809K
20260505T12Z_MSC_CAPS_GeopotentialHeight_IsbL-0750_RLatLon0.03_PT037H.grib2 2026-05-05 18:22 810K
20260505T12Z_MSC_CAPS_GeopotentialHeight_IsbL-0800_RLatLon0.03_PT037H.grib2 2026-05-05 18:22 895K
20260505T12Z_MSC_CAPS_GeopotentialHeight_IsbL-0850_RLatLon0.03_PT037H.grib2 2026-05-05 18:22 901K
20260505T12Z_MSC_CAPS_GeopotentialHeight_IsbL-0875_RLatLon0.03_PT037H.grib2 2026-05-05 18:22 904K
20260505T12Z_MSC_CAPS_GeopotentialHeight_IsbL-0900_RLatLon0.03_PT037H.grib2 2026-05-05 18:22 911K
20260505T12Z_MSC_CAPS_GeopotentialHeight_IsbL-0925_RLatLon0.03_PT037H.grib2 2026-05-05 18:22 839K
20260505T12Z_MSC_CAPS_GeopotentialHeight_IsbL-0950_RLatLon0.03_PT037H.grib2 2026-05-05 18:22 841K
20260505T12Z_MSC_CAPS_GeopotentialHeight_IsbL-0970_RLatLon0.03_PT037H.grib2 2026-05-05 18:22 857K
20260505T12Z_MSC_CAPS_GeopotentialHeight_IsbL-0985_RLatLon0.03_PT037H.grib2 2026-05-05 18:22 864K
20260505T12Z_MSC_CAPS_GeopotentialHeight_IsbL-1000_RLatLon0.03_PT037H.grib2 2026-05-05 18:22 875K
20260505T12Z_MSC_CAPS_GeopotentialHeight_IsbL-1015_RLatLon0.03_PT037H.grib2 2026-05-05 18:22 885K
20260505T12Z_MSC_CAPS_GeopotentialHeight_Sfc_RLatLon0.03_PT037H.grib2 2026-05-05 18:22 1.0M
20260505T12Z_MSC_CAPS_IcePellets-Accum_Sfc_RLatLon0.03_PT037H.grib2 2026-05-05 18:22 113K
20260505T12Z_MSC_CAPS_LatentHeatNetFlux_Sfc_RLatLon0.03_PT037H.grib2 2026-05-05 18:22 2.0M
20260505T12Z_MSC_CAPS_LiftedIndex-MU-VT_IsbL-0500_RLatLon0.03_PT037H.grib2 2026-05-05 18:22 3.3M
20260505T12Z_MSC_CAPS_MixedLayerThickness_Sfc_RLatLon0.03_PT037H.nc 2026-05-05 18:13 17M
20260505T12Z_MSC_CAPS_NetLongwaveRadiationFlux-Accum_Sfc_RLatLon0.03_PT037H.grib2 2026-05-05 18:22 2.9M
20260505T12Z_MSC_CAPS_NetShortwaveRadiationFlux-Accum_Sfc_RLatLon0.03_PT037H.grib2 2026-05-05 18:22 2.9M
20260505T12Z_MSC_CAPS_PlanetaryBoundaryLayerHeight_Sfc_RLatLon0.03_PT037H.grib2 2026-05-05 18:22 3.1M
20260505T12Z_MSC_CAPS_Precip-Accum_Sfc_RLatLon0.03_PT037H.grib2 2026-05-05 18:22 5.5M
20260505T12Z_MSC_CAPS_PrecipRate_Sfc_RLatLon0.03_PT037H.grib2 2026-05-05 18:22 470K
20260505T12Z_MSC_CAPS_PrecipType-Instant_Sfc_RLatLon0.03_PT037H.grib2 2026-05-05 18:22 2.0M
20260505T12Z_MSC_CAPS_Pressure_MSL_RLatLon0.03_PT037H.grib2 2026-05-05 18:22 763K
20260505T12Z_MSC_CAPS_Pressure_Sfc_RLatLon0.03_PT037H.grib2 2026-05-05 18:22 1.2M
20260505T12Z_MSC_CAPS_RadiativeTemp_Sfc_RLatLon0.03_PT037H.grib2 2026-05-05 18:22 2.1M
20260505T12Z_MSC_CAPS_Rain-Accum_Sfc_RLatLon0.03_PT037H.grib2 2026-05-05 18:22 3.0M
20260505T12Z_MSC_CAPS_RelativeHumidity_AGL-120m_RLatLon0.03_PT037H.grib2 2026-05-05 18:22 2.9M
20260505T12Z_MSC_CAPS_RelativeHumidity_AGL-2m_RLatLon0.03_PT037H.grib2 2026-05-05 18:22 3.0M
20260505T12Z_MSC_CAPS_RelativeHumidity_AGL-40m_RLatLon0.03_PT037H.grib2 2026-05-05 18:22 3.0M
20260505T12Z_MSC_CAPS_RelativeHumidity_AGL-80m_RLatLon0.03_PT037H.grib2 2026-05-05 18:22 2.9M
20260505T12Z_MSC_CAPS_RelativeHumidity_IsbL-0050_RLatLon0.03_PT037H.grib2 2026-05-05 18:22 1.0M
20260505T12Z_MSC_CAPS_RelativeHumidity_IsbL-0100_RLatLon0.03_PT037H.grib2 2026-05-05 18:22 1.1M
20260505T12Z_MSC_CAPS_RelativeHumidity_IsbL-0150_RLatLon0.03_PT037H.grib2 2026-05-05 18:22 346K
20260505T12Z_MSC_CAPS_RelativeHumidity_IsbL-0175_RLatLon0.03_PT037H.grib2 2026-05-05 18:22 483K
20260505T12Z_MSC_CAPS_RelativeHumidity_IsbL-0200_RLatLon0.03_PT037H.grib2 2026-05-05 18:22 670K
20260505T12Z_MSC_CAPS_RelativeHumidity_IsbL-0225_RLatLon0.03_PT037H.grib2 2026-05-05 18:22 905K
20260505T12Z_MSC_CAPS_RelativeHumidity_IsbL-0250_RLatLon0.03_PT037H.grib2 2026-05-05 18:22 1.1M
20260505T12Z_MSC_CAPS_RelativeHumidity_IsbL-0275_RLatLon0.03_PT037H.grib2 2026-05-05 18:22 1.4M
20260505T12Z_MSC_CAPS_RelativeHumidity_IsbL-0300_RLatLon0.03_PT037H.grib2 2026-05-05 18:22 1.7M
20260505T12Z_MSC_CAPS_RelativeHumidity_IsbL-0350_RLatLon0.03_PT037H.grib2 2026-05-05 18:22 2.0M
20260505T12Z_MSC_CAPS_RelativeHumidity_IsbL-0400_RLatLon0.03_PT037H.grib2 2026-05-05 18:22 2.1M
20260505T12Z_MSC_CAPS_RelativeHumidity_IsbL-0450_RLatLon0.03_PT037H.grib2 2026-05-05 18:22 2.0M
20260505T12Z_MSC_CAPS_RelativeHumidity_IsbL-0500_RLatLon0.03_PT037H.grib2 2026-05-05 18:22 2.2M
20260505T12Z_MSC_CAPS_RelativeHumidity_IsbL-0550_RLatLon0.03_PT037H.grib2 2026-05-05 18:22 2.1M
20260505T12Z_MSC_CAPS_RelativeHumidity_IsbL-0600_RLatLon0.03_PT037H.grib2 2026-05-05 18:22 2.1M
20260505T12Z_MSC_CAPS_RelativeHumidity_IsbL-0650_RLatLon0.03_PT037H.grib2 2026-05-05 18:22 2.3M
20260505T12Z_MSC_CAPS_RelativeHumidity_IsbL-0700_RLatLon0.03_PT037H.grib2 2026-05-05 18:22 2.3M
20260505T12Z_MSC_CAPS_RelativeHumidity_IsbL-0750_RLatLon0.03_PT037H.grib2 2026-05-05 18:22 2.4M
20260505T12Z_MSC_CAPS_RelativeHumidity_IsbL-0800_RLatLon0.03_PT037H.grib2 2026-05-05 18:22 2.5M
20260505T12Z_MSC_CAPS_RelativeHumidity_IsbL-0850_RLatLon0.03_PT037H.grib2 2026-05-05 18:22 2.7M
20260505T12Z_MSC_CAPS_RelativeHumidity_IsbL-0875_RLatLon0.03_PT037H.grib2 2026-05-05 18:22 2.7M
20260505T12Z_MSC_CAPS_RelativeHumidity_IsbL-0900_RLatLon0.03_PT037H.grib2 2026-05-05 18:22 2.8M
20260505T12Z_MSC_CAPS_RelativeHumidity_IsbL-0925_RLatLon0.03_PT037H.grib2 2026-05-05 18:22 2.8M
20260505T12Z_MSC_CAPS_RelativeHumidity_IsbL-0950_RLatLon0.03_PT037H.grib2 2026-05-05 18:22 2.9M
20260505T12Z_MSC_CAPS_RelativeHumidity_IsbL-0970_RLatLon0.03_PT037H.grib2 2026-05-05 18:22 2.9M
20260505T12Z_MSC_CAPS_RelativeHumidity_IsbL-0985_RLatLon0.03_PT037H.grib2 2026-05-05 18:22 3.0M
20260505T12Z_MSC_CAPS_RelativeHumidity_IsbL-1000_RLatLon0.03_PT037H.grib2 2026-05-05 18:22 3.0M
20260505T12Z_MSC_CAPS_RelativeHumidity_IsbL-1015_RLatLon0.03_PT037H.grib2 2026-05-05 18:22 3.0M
20260505T12Z_MSC_CAPS_Runoff-Accum_Sfc_RLatLon0.03_PT037H.grib2 2026-05-05 18:22 319K
20260505T12Z_MSC_CAPS_SeaIceAreaFraction_Sfc_RLatLon0.03_PT037H.nc 2026-05-05 18:13 15M
20260505T12Z_MSC_CAPS_SeaIceCompressiveStrength_Sfc_RLatLon0.03_PT037H.nc 2026-05-05 18:13 15M
20260505T12Z_MSC_CAPS_SeaIceDivergence_Sfc_RLatLon0.03_PT037H.nc 2026-05-05 18:13 15M
20260505T12Z_MSC_CAPS_SeaIceInternalPressure_Sfc_RLatLon0.03_PT037H.nc 2026-05-05 18:13 15M
20260505T12Z_MSC_CAPS_SeaIceShear_Sfc_RLatLon0.03_PT037H.nc 2026-05-05 18:13 15M
20260505T12Z_MSC_CAPS_SeaIceSnowTemp_Sfc_RLatLon0.03_PT037H.nc 2026-05-05 18:13 14M
20260505T12Z_MSC_CAPS_SeaIceSnowVolume_Sfc_RLatLon0.03_PT037H.nc 2026-05-05 18:13 15M
20260505T12Z_MSC_CAPS_SeaIceVelocityX_Sfc_RLatLon0.03_PT037H.nc 2026-05-05 18:13 15M
20260505T12Z_MSC_CAPS_SeaIceVelocityY_Sfc_RLatLon0.03_PT037H.nc 2026-05-05 18:13 15M
20260505T12Z_MSC_CAPS_SeaIceVolume_Sfc_RLatLon0.03_PT037H.nc 2026-05-05 18:13 15M
20260505T12Z_MSC_CAPS_SeaSurfaceHeight_Sfc_RLatLon0.03_PT037H.nc 2026-05-05 18:13 16M
20260505T12Z_MSC_CAPS_SeaWaterSalinity_DBS-0.5m_RLatLon0.03_PT037H.nc 2026-05-05 18:13 16M
20260505T12Z_MSC_CAPS_SeaWaterSalinity_DBS-all_RLatLon0.03_PT037H.nc 2026-05-05 18:13 107M
20260505T12Z_MSC_CAPS_SeaWaterTemp_DBS-0.5m_RLatLon0.03_PT037H.nc 2026-05-05 18:13 15M
20260505T12Z_MSC_CAPS_SeaWaterTemp_DBS-all_RLatLon0.03_PT037H.nc 2026-05-05 18:13 88M
20260505T12Z_MSC_CAPS_SeaWaterVelocityX_DBS-0.5m_RLatLon0.03_PT037H.nc 2026-05-05 18:13 17M
20260505T12Z_MSC_CAPS_SeaWaterVelocityX_DBS-all_RLatLon0.03_PT037H.nc 2026-05-05 18:13 208M
20260505T12Z_MSC_CAPS_SeaWaterVelocityY_DBS-0.5m_RLatLon0.03_PT037H.nc 2026-05-05 18:13 17M
20260505T12Z_MSC_CAPS_SeaWaterVelocityY_DBS-all_RLatLon0.03_PT037H.nc 2026-05-05 18:13 215M
20260505T12Z_MSC_CAPS_SensibleHeatNetFlux_Sfc_RLatLon0.03_PT037H.grib2 2026-05-05 18:22 2.2M
20260505T12Z_MSC_CAPS_ShowalterIndex_IsbL-0500_RLatLon0.03_PT037H.grib2 2026-05-05 18:22 4.3M
20260505T12Z_MSC_CAPS_Snow-Accum_Sfc_RLatLon0.03_PT037H.grib2 2026-05-05 18:22 4.4M
20260505T12Z_MSC_CAPS_SnowDensity_Sfc_RLatLon0.03_PT037H.grib2 2026-05-05 18:22 1.3M
20260505T12Z_MSC_CAPS_SnowDepthWaterEquivalent_Sfc_RLatLon0.03_PT037H.grib2 2026-05-05 18:22 652K
20260505T12Z_MSC_CAPS_SnowDepth_Sfc_RLatLon0.03_PT037H.grib2 2026-05-05 18:22 1.1M
20260505T12Z_MSC_CAPS_SoilTemp_DBS-0to10cm_RLatLon0.03_PT037H.grib2 2026-05-05 18:22 1.6M
20260505T12Z_MSC_CAPS_SoilTemp_Sfc_RLatLon0.03_PT037H.grib2 2026-05-05 18:22 1.8M
20260505T12Z_MSC_CAPS_SoilVolumetricIceContent_Sfc_RLatLon0.03_PT037H.grib2 2026-05-05 18:22 1.4M
20260505T12Z_MSC_CAPS_SoilVolumetricWaterContent_DBS-0to10cm_RLatLon0.03_PT037H.grib2 2026-05-05 18:22 1.3M
20260505T12Z_MSC_CAPS_SoilVolumetricWaterContent_DBS-0to1cm_RLatLon0.03_PT037H.grib2 2026-05-05 18:22 1.8M
20260505T12Z_MSC_CAPS_SpecificHumidity_AGL-120m_RLatLon0.03_PT037H.grib2 2026-05-05 18:22 1.9M
20260505T12Z_MSC_CAPS_SpecificHumidity_AGL-2m_RLatLon0.03_PT037H.grib2 2026-05-05 18:22 1.8M
20260505T12Z_MSC_CAPS_SpecificHumidity_AGL-40m_RLatLon0.03_PT037H.grib2 2026-05-05 18:22 2.0M
20260505T12Z_MSC_CAPS_SpecificHumidity_AGL-80m_RLatLon0.03_PT037H.grib2 2026-05-05 18:22 1.9M
20260505T12Z_MSC_CAPS_SpecificHumidity_IsbL-0050_RLatLon0.03_PT037H.grib2 2026-05-05 18:22 934K
20260505T12Z_MSC_CAPS_SpecificHumidity_IsbL-0100_RLatLon0.03_PT037H.grib2 2026-05-05 18:22 1.0M
20260505T12Z_MSC_CAPS_SpecificHumidity_IsbL-0150_RLatLon0.03_PT037H.grib2 2026-05-05 18:22 780K
20260505T12Z_MSC_CAPS_SpecificHumidity_IsbL-0175_RLatLon0.03_PT037H.grib2 2026-05-05 18:22 1.0M
20260505T12Z_MSC_CAPS_SpecificHumidity_IsbL-0200_RLatLon0.03_PT037H.grib2 2026-05-05 18:22 905K
20260505T12Z_MSC_CAPS_SpecificHumidity_IsbL-0225_RLatLon0.03_PT037H.grib2 2026-05-05 18:22 858K
20260505T12Z_MSC_CAPS_SpecificHumidity_IsbL-0250_RLatLon0.03_PT037H.grib2 2026-05-05 18:22 1.1M
20260505T12Z_MSC_CAPS_SpecificHumidity_IsbL-0275_RLatLon0.03_PT037H.grib2 2026-05-05 18:22 1.1M
20260505T12Z_MSC_CAPS_SpecificHumidity_IsbL-0300_RLatLon0.03_PT037H.grib2 2026-05-05 18:22 1.1M
20260505T12Z_MSC_CAPS_SpecificHumidity_IsbL-0350_RLatLon0.03_PT037H.grib2 2026-05-05 18:22 1.0M
20260505T12Z_MSC_CAPS_SpecificHumidity_IsbL-0400_RLatLon0.03_PT037H.grib2 2026-05-05 18:22 1.0M
20260505T12Z_MSC_CAPS_SpecificHumidity_IsbL-0450_RLatLon0.03_PT037H.grib2 2026-05-05 18:22 1.1M
20260505T12Z_MSC_CAPS_SpecificHumidity_IsbL-0500_RLatLon0.03_PT037H.grib2 2026-05-05 18:22 1.1M
20260505T12Z_MSC_CAPS_SpecificHumidity_IsbL-0550_RLatLon0.03_PT037H.grib2 2026-05-05 18:22 1.3M
20260505T12Z_MSC_CAPS_SpecificHumidity_IsbL-0600_RLatLon0.03_PT037H.grib2 2026-05-05 18:22 1.4M
20260505T12Z_MSC_CAPS_SpecificHumidity_IsbL-0650_RLatLon0.03_PT037H.grib2 2026-05-05 18:22 1.5M
20260505T12Z_MSC_CAPS_SpecificHumidity_IsbL-0700_RLatLon0.03_PT037H.grib2 2026-05-05 18:22 1.3M
20260505T12Z_MSC_CAPS_SpecificHumidity_IsbL-0750_RLatLon0.03_PT037H.grib2 2026-05-05 18:22 1.5M
20260505T12Z_MSC_CAPS_SpecificHumidity_IsbL-0800_RLatLon0.03_PT037H.grib2 2026-05-05 18:22 1.6M
20260505T12Z_MSC_CAPS_SpecificHumidity_IsbL-0850_RLatLon0.03_PT037H.grib2 2026-05-05 18:22 1.8M
20260505T12Z_MSC_CAPS_SpecificHumidity_IsbL-0875_RLatLon0.03_PT037H.grib2 2026-05-05 18:22 1.9M
20260505T12Z_MSC_CAPS_SpecificHumidity_IsbL-0900_RLatLon0.03_PT037H.grib2 2026-05-05 18:22 2.0M
20260505T12Z_MSC_CAPS_SpecificHumidity_IsbL-0925_RLatLon0.03_PT037H.grib2 2026-05-05 18:22 2.0M
20260505T12Z_MSC_CAPS_SpecificHumidity_IsbL-0950_RLatLon0.03_PT037H.grib2 2026-05-05 18:22 1.7M
20260505T12Z_MSC_CAPS_SpecificHumidity_IsbL-0970_RLatLon0.03_PT037H.grib2 2026-05-05 18:22 1.7M
20260505T12Z_MSC_CAPS_SpecificHumidity_IsbL-0985_RLatLon0.03_PT037H.grib2 2026-05-05 18:22 1.8M
20260505T12Z_MSC_CAPS_SpecificHumidity_IsbL-1000_RLatLon0.03_PT037H.grib2 2026-05-05 18:22 1.8M
20260505T12Z_MSC_CAPS_SpecificHumidity_IsbL-1015_RLatLon0.03_PT037H.grib2 2026-05-05 18:22 1.8M
20260505T12Z_MSC_CAPS_SpecificHumidity_Sfc_RLatLon0.03_PT037H.grib2 2026-05-05 18:22 2.1M
20260505T12Z_MSC_CAPS_StormRelativeHelicity_Sfc_RLatLon0.03_PT037H.grib2 2026-05-05 18:22 2.7M
20260505T12Z_MSC_CAPS_Thickness_IsbL-1000to0500_RLatLon0.03_PT037H.grib2 2026-05-05 18:22 416K
20260505T12Z_MSC_CAPS_TotalCloudCover_Sfc_RLatLon0.03_PT037H.grib2 2026-05-05 18:22 3.9M
20260505T12Z_MSC_CAPS_TurboclineDepth_Sfc_RLatLon0.03_PT037H.nc 2026-05-05 18:13 16M
20260505T12Z_MSC_CAPS_UpwardLongwaveRadiationFlux_NTAtm_RLatLon0.03_PT037H.grib2 2026-05-05 18:22 3.0M
20260505T12Z_MSC_CAPS_UpwardShortwaveRadiationFlux_NTAtm_RLatLon0.03_PT037H.grib2 2026-05-05 18:22 2.2M
20260505T12Z_MSC_CAPS_VerticalVelocity_IsbL-0250_RLatLon0.03_PT037H.grib2 2026-05-05 18:22 916K
20260505T12Z_MSC_CAPS_VerticalVelocity_IsbL-0500_RLatLon0.03_PT037H.grib2 2026-05-05 18:22 1.2M
20260505T12Z_MSC_CAPS_VerticalVelocity_IsbL-0700_RLatLon0.03_PT037H.grib2 2026-05-05 18:22 1.3M
20260505T12Z_MSC_CAPS_VerticalVelocity_IsbL-0850_RLatLon0.03_PT037H.grib2 2026-05-05 18:22 1.5M
20260505T12Z_MSC_CAPS_VerticalVelocity_IsbL-1000_RLatLon0.03_PT037H.grib2 2026-05-05 18:22 1.5M
20260505T12Z_MSC_CAPS_WindDir_AGL-10m_RLatLon0.03_PT037H.grib2 2026-05-05 18:22 2.4M
20260505T12Z_MSC_CAPS_WindDir_AGL-120m_RLatLon0.03_PT037H.grib2 2026-05-05 18:22 1.2M
20260505T12Z_MSC_CAPS_WindDir_AGL-40m_RLatLon0.03_PT037H.grib2 2026-05-05 18:22 1.3M
20260505T12Z_MSC_CAPS_WindDir_AGL-80m_RLatLon0.03_PT037H.grib2 2026-05-05 18:22 1.3M
20260505T12Z_MSC_CAPS_WindDir_IsbL-0050_RLatLon0.03_PT037H.grib2 2026-05-05 18:22 1.1M
20260505T12Z_MSC_CAPS_WindDir_IsbL-0100_RLatLon0.03_PT037H.grib2 2026-05-05 18:22 1.0M
20260505T12Z_MSC_CAPS_WindDir_IsbL-0150_RLatLon0.03_PT037H.grib2 2026-05-05 18:22 1.0M
20260505T12Z_MSC_CAPS_WindDir_IsbL-0175_RLatLon0.03_PT037H.grib2 2026-05-05 18:22 1.0M
20260505T12Z_MSC_CAPS_WindDir_IsbL-0200_RLatLon0.03_PT037H.grib2 2026-05-05 18:22 1.2M
20260505T12Z_MSC_CAPS_WindDir_IsbL-0225_RLatLon0.03_PT037H.grib2 2026-05-05 18:22 1.1M
20260505T12Z_MSC_CAPS_WindDir_IsbL-0250_RLatLon0.03_PT037H.grib2 2026-05-05 18:22 1.1M
20260505T12Z_MSC_CAPS_WindDir_IsbL-0275_RLatLon0.03_PT037H.grib2 2026-05-05 18:22 1.1M
20260505T12Z_MSC_CAPS_WindDir_IsbL-0300_RLatLon0.03_PT037H.grib2 2026-05-05 18:22 1.1M
20260505T12Z_MSC_CAPS_WindDir_IsbL-0350_RLatLon0.03_PT037H.grib2 2026-05-05 18:22 1.1M
20260505T12Z_MSC_CAPS_WindDir_IsbL-0400_RLatLon0.03_PT037H.grib2 2026-05-05 18:22 1.2M
20260505T12Z_MSC_CAPS_WindDir_IsbL-0450_RLatLon0.03_PT037H.grib2 2026-05-05 18:22 1.2M
20260505T12Z_MSC_CAPS_WindDir_IsbL-0500_RLatLon0.03_PT037H.grib2 2026-05-05 18:22 1.2M
20260505T12Z_MSC_CAPS_WindDir_IsbL-0550_RLatLon0.03_PT037H.grib2 2026-05-05 18:22 1.2M
20260505T12Z_MSC_CAPS_WindDir_IsbL-0600_RLatLon0.03_PT037H.grib2 2026-05-05 18:22 1.3M
20260505T12Z_MSC_CAPS_WindDir_IsbL-0650_RLatLon0.03_PT037H.grib2 2026-05-05 18:22 1.4M
20260505T12Z_MSC_CAPS_WindDir_IsbL-0700_RLatLon0.03_PT037H.grib2 2026-05-05 18:22 1.5M
20260505T12Z_MSC_CAPS_WindDir_IsbL-0750_RLatLon0.03_PT037H.grib2 2026-05-05 18:22 1.6M
20260505T12Z_MSC_CAPS_WindDir_IsbL-0800_RLatLon0.03_PT037H.grib2 2026-05-05 18:22 1.7M
20260505T12Z_MSC_CAPS_WindDir_IsbL-0850_RLatLon0.03_PT037H.grib2 2026-05-05 18:22 1.8M
20260505T12Z_MSC_CAPS_WindDir_IsbL-0875_RLatLon0.03_PT037H.grib2 2026-05-05 18:22 1.9M
20260505T12Z_MSC_CAPS_WindDir_IsbL-0900_RLatLon0.03_PT037H.grib2 2026-05-05 18:22 1.9M
20260505T12Z_MSC_CAPS_WindDir_IsbL-0925_RLatLon0.03_PT037H.grib2 2026-05-05 18:22 2.0M
20260505T12Z_MSC_CAPS_WindDir_IsbL-0950_RLatLon0.03_PT037H.grib2 2026-05-05 18:22 2.0M
20260505T12Z_MSC_CAPS_WindDir_IsbL-0970_RLatLon0.03_PT037H.grib2 2026-05-05 18:22 2.1M
20260505T12Z_MSC_CAPS_WindDir_IsbL-0985_RLatLon0.03_PT037H.grib2 2026-05-05 18:22 2.2M
20260505T12Z_MSC_CAPS_WindDir_IsbL-1000_RLatLon0.03_PT037H.grib2 2026-05-05 18:22 2.3M
20260505T12Z_MSC_CAPS_WindDir_IsbL-1015_RLatLon0.03_PT037H.grib2 2026-05-05 18:22 2.3M
20260505T12Z_MSC_CAPS_WindGust-Max_AGL-10m_RLatLon0.03_PT037H.grib2 2026-05-05 18:22 2.5M
20260505T12Z_MSC_CAPS_WindGust-Min_AGL-10m_RLatLon0.03_PT037H.grib2 2026-05-05 18:22 2.4M
20260505T12Z_MSC_CAPS_WindGust_AGL-10m_RLatLon0.03_PT037H.grib2 2026-05-05 18:22 2.5M
20260505T12Z_MSC_CAPS_WindSpeed_AGL-10m_RLatLon0.03_PT037H.grib2 2026-05-05 18:22 2.1M
20260505T12Z_MSC_CAPS_WindSpeed_AGL-120m_RLatLon0.03_PT037H.grib2 2026-05-05 18:22 1.1M
20260505T12Z_MSC_CAPS_WindSpeed_AGL-40m_RLatLon0.03_PT037H.grib2 2026-05-05 18:22 1.5M
20260505T12Z_MSC_CAPS_WindSpeed_AGL-80m_RLatLon0.03_PT037H.grib2 2026-05-05 18:22 1.1M
20260505T12Z_MSC_CAPS_WindSpeed_IsbL-0050_RLatLon0.03_PT037H.grib2 2026-05-05 18:22 954K
20260505T12Z_MSC_CAPS_WindSpeed_IsbL-0100_RLatLon0.03_PT037H.grib2 2026-05-05 18:22 1.3M
20260505T12Z_MSC_CAPS_WindSpeed_IsbL-0150_RLatLon0.03_PT037H.grib2 2026-05-05 18:22 1.0M
20260505T12Z_MSC_CAPS_WindSpeed_IsbL-0175_RLatLon0.03_PT037H.grib2 2026-05-05 18:22 1.1M
20260505T12Z_MSC_CAPS_WindSpeed_IsbL-0200_RLatLon0.03_PT037H.grib2 2026-05-05 18:22 1.2M
20260505T12Z_MSC_CAPS_WindSpeed_IsbL-0225_RLatLon0.03_PT037H.grib2 2026-05-05 18:22 958K
20260505T12Z_MSC_CAPS_WindSpeed_IsbL-0250_RLatLon0.03_PT037H.grib2 2026-05-05 18:22 973K
20260505T12Z_MSC_CAPS_WindSpeed_IsbL-0275_RLatLon0.03_PT037H.grib2 2026-05-05 18:22 1.0M
20260505T12Z_MSC_CAPS_WindSpeed_IsbL-0300_RLatLon0.03_PT037H.grib2 2026-05-05 18:22 1.0M
20260505T12Z_MSC_CAPS_WindSpeed_IsbL-0350_RLatLon0.03_PT037H.grib2 2026-05-05 18:22 1.0M
20260505T12Z_MSC_CAPS_WindSpeed_IsbL-0400_RLatLon0.03_PT037H.grib2 2026-05-05 18:22 1.0M
20260505T12Z_MSC_CAPS_WindSpeed_IsbL-0450_RLatLon0.03_PT037H.grib2 2026-05-05 18:22 1.3M
20260505T12Z_MSC_CAPS_WindSpeed_IsbL-0500_RLatLon0.03_PT037H.grib2 2026-05-05 18:22 1.3M
20260505T12Z_MSC_CAPS_WindSpeed_IsbL-0550_RLatLon0.03_PT037H.grib2 2026-05-05 18:22 1.4M
20260505T12Z_MSC_CAPS_WindSpeed_IsbL-0600_RLatLon0.03_PT037H.grib2 2026-05-05 18:22 1.4M
20260505T12Z_MSC_CAPS_WindSpeed_IsbL-0650_RLatLon0.03_PT037H.grib2 2026-05-05 18:22 1.5M
20260505T12Z_MSC_CAPS_WindSpeed_IsbL-0700_RLatLon0.03_PT037H.grib2 2026-05-05 18:22 1.5M
20260505T12Z_MSC_CAPS_WindSpeed_IsbL-0750_RLatLon0.03_PT037H.grib2 2026-05-05 18:22 1.6M
20260505T12Z_MSC_CAPS_WindSpeed_IsbL-0800_RLatLon0.03_PT037H.grib2 2026-05-05 18:22 1.7M
20260505T12Z_MSC_CAPS_WindSpeed_IsbL-0850_RLatLon0.03_PT037H.grib2 2026-05-05 18:22 1.8M
20260505T12Z_MSC_CAPS_WindSpeed_IsbL-0875_RLatLon0.03_PT037H.grib2 2026-05-05 18:22 1.8M
20260505T12Z_MSC_CAPS_WindSpeed_IsbL-0900_RLatLon0.03_PT037H.grib2 2026-05-05 18:22 1.9M
20260505T12Z_MSC_CAPS_WindSpeed_IsbL-0925_RLatLon0.03_PT037H.grib2 2026-05-05 18:22 1.9M
20260505T12Z_MSC_CAPS_WindSpeed_IsbL-0950_RLatLon0.03_PT037H.grib2 2026-05-05 18:22 2.0M
20260505T12Z_MSC_CAPS_WindSpeed_IsbL-0970_RLatLon0.03_PT037H.grib2 2026-05-05 18:22 2.0M
20260505T12Z_MSC_CAPS_WindSpeed_IsbL-0985_RLatLon0.03_PT037H.grib2 2026-05-05 18:22 2.0M
20260505T12Z_MSC_CAPS_WindSpeed_IsbL-1000_RLatLon0.03_PT037H.grib2 2026-05-05 18:22 2.1M
20260505T12Z_MSC_CAPS_WindSpeed_IsbL-1015_RLatLon0.03_PT037H.grib2 2026-05-05 18:22 2.1M
20260505T12Z_MSC_CAPS_WindU_AGL-10m_RLatLon0.03_PT037H.grib2 2026-05-05 18:22 1.9M
20260505T12Z_MSC_CAPS_WindU_AGL-120m_RLatLon0.03_PT037H.grib2 2026-05-05 18:22 896K
20260505T12Z_MSC_CAPS_WindU_AGL-40m_RLatLon0.03_PT037H.grib2 2026-05-05 18:22 1.2M
20260505T12Z_MSC_CAPS_WindU_AGL-80m_RLatLon0.03_PT037H.grib2 2026-05-05 18:22 1.2M
20260505T12Z_MSC_CAPS_WindU_IsbL-0050_RLatLon0.03_PT037H.grib2 2026-05-05 18:22 717K
20260505T12Z_MSC_CAPS_WindU_IsbL-0100_RLatLon0.03_PT037H.grib2 2026-05-05 18:22 958K
20260505T12Z_MSC_CAPS_WindU_IsbL-0150_RLatLon0.03_PT037H.grib2 2026-05-05 18:22 919K
20260505T12Z_MSC_CAPS_WindU_IsbL-0175_RLatLon0.03_PT037H.grib2 2026-05-05 18:22 732K
20260505T12Z_MSC_CAPS_WindU_IsbL-0200_RLatLon0.03_PT037H.grib2 2026-05-05 18:22 883K
20260505T12Z_MSC_CAPS_WindU_IsbL-0225_RLatLon0.03_PT037H.grib2 2026-05-05 18:22 898K
20260505T12Z_MSC_CAPS_WindU_IsbL-0250_RLatLon0.03_PT037H.grib2 2026-05-05 18:22 916K
20260505T12Z_MSC_CAPS_WindU_IsbL-0275_RLatLon0.03_PT037H.grib2 2026-05-05 18:22 920K
20260505T12Z_MSC_CAPS_WindU_IsbL-0300_RLatLon0.03_PT037H.grib2 2026-05-05 18:22 928K
20260505T12Z_MSC_CAPS_WindU_IsbL-0350_RLatLon0.03_PT037H.grib2 2026-05-05 18:22 945K
20260505T12Z_MSC_CAPS_WindU_IsbL-0400_RLatLon0.03_PT037H.grib2 2026-05-05 18:22 953K
20260505T12Z_MSC_CAPS_WindU_IsbL-0450_RLatLon0.03_PT037H.grib2 2026-05-05 18:22 971K
20260505T12Z_MSC_CAPS_WindU_IsbL-0500_RLatLon0.03_PT037H.grib2 2026-05-05 18:22 878K
20260505T12Z_MSC_CAPS_WindU_IsbL-0550_RLatLon0.03_PT037H.grib2 2026-05-05 18:22 909K
20260505T12Z_MSC_CAPS_WindU_IsbL-0600_RLatLon0.03_PT037H.grib2 2026-05-05 18:22 940K
20260505T12Z_MSC_CAPS_WindU_IsbL-0650_RLatLon0.03_PT037H.grib2 2026-05-05 18:22 1.0M
20260505T12Z_MSC_CAPS_WindU_IsbL-0700_RLatLon0.03_PT037H.grib2 2026-05-05 18:22 1.0M
20260505T12Z_MSC_CAPS_WindU_IsbL-0750_RLatLon0.03_PT037H.grib2 2026-05-05 18:22 1.1M
20260505T12Z_MSC_CAPS_WindU_IsbL-0800_RLatLon0.03_PT037H.grib2 2026-05-05 18:22 1.1M
20260505T12Z_MSC_CAPS_WindU_IsbL-0850_RLatLon0.03_PT037H.grib2 2026-05-05 18:22 1.2M
20260505T12Z_MSC_CAPS_WindU_IsbL-0875_RLatLon0.03_PT037H.grib2 2026-05-05 18:22 1.3M
20260505T12Z_MSC_CAPS_WindU_IsbL-0900_RLatLon0.03_PT037H.grib2 2026-05-05 18:22 1.3M
20260505T12Z_MSC_CAPS_WindU_IsbL-0925_RLatLon0.03_PT037H.grib2 2026-05-05 18:22 1.3M
20260505T12Z_MSC_CAPS_WindU_IsbL-0950_RLatLon0.03_PT037H.grib2 2026-05-05 18:22 1.4M
20260505T12Z_MSC_CAPS_WindU_IsbL-0970_RLatLon0.03_PT037H.grib2 2026-05-05 18:22 1.4M
20260505T12Z_MSC_CAPS_WindU_IsbL-0985_RLatLon0.03_PT037H.grib2 2026-05-05 18:22 1.4M
20260505T12Z_MSC_CAPS_WindU_IsbL-1000_RLatLon0.03_PT037H.grib2 2026-05-05 18:22 1.9M
20260505T12Z_MSC_CAPS_WindU_IsbL-1015_RLatLon0.03_PT037H.grib2 2026-05-05 18:22 1.9M
20260505T12Z_MSC_CAPS_WindV_AGL-10m_RLatLon0.03_PT037H.grib2 2026-05-05 18:22 2.0M
20260505T12Z_MSC_CAPS_WindV_AGL-120m_RLatLon0.03_PT037H.grib2 2026-05-05 18:22 1.2M
20260505T12Z_MSC_CAPS_WindV_AGL-40m_RLatLon0.03_PT037H.grib2 2026-05-05 18:22 1.2M
20260505T12Z_MSC_CAPS_WindV_AGL-80m_RLatLon0.03_PT037H.grib2 2026-05-05 18:22 1.2M
20260505T12Z_MSC_CAPS_WindV_IsbL-0050_RLatLon0.03_PT037H.grib2 2026-05-05 18:22 766K
20260505T12Z_MSC_CAPS_WindV_IsbL-0100_RLatLon0.03_PT037H.grib2 2026-05-05 18:22 784K
20260505T12Z_MSC_CAPS_WindV_IsbL-0150_RLatLon0.03_PT037H.grib2 2026-05-05 18:22 909K
20260505T12Z_MSC_CAPS_WindV_IsbL-0175_RLatLon0.03_PT037H.grib2 2026-05-05 18:22 723K
20260505T12Z_MSC_CAPS_WindV_IsbL-0200_RLatLon0.03_PT037H.grib2 2026-05-05 18:22 875K
20260505T12Z_MSC_CAPS_WindV_IsbL-0225_RLatLon0.03_PT037H.grib2 2026-05-05 18:22 893K
20260505T12Z_MSC_CAPS_WindV_IsbL-0250_RLatLon0.03_PT037H.grib2 2026-05-05 18:22 911K
20260505T12Z_MSC_CAPS_WindV_IsbL-0275_RLatLon0.03_PT037H.grib2 2026-05-05 18:22 915K
20260505T12Z_MSC_CAPS_WindV_IsbL-0300_RLatLon0.03_PT037H.grib2 2026-05-05 18:22 713K
20260505T12Z_MSC_CAPS_WindV_IsbL-0350_RLatLon0.03_PT037H.grib2 2026-05-05 18:22 943K
20260505T12Z_MSC_CAPS_WindV_IsbL-0400_RLatLon0.03_PT037H.grib2 2026-05-05 18:22 949K
20260505T12Z_MSC_CAPS_WindV_IsbL-0450_RLatLon0.03_PT037H.grib2 2026-05-05 18:22 967K
20260505T12Z_MSC_CAPS_WindV_IsbL-0500_RLatLon0.03_PT037H.grib2 2026-05-05 18:22 1.0M
20260505T12Z_MSC_CAPS_WindV_IsbL-0550_RLatLon0.03_PT037H.grib2 2026-05-05 18:22 904K
20260505T12Z_MSC_CAPS_WindV_IsbL-0600_RLatLon0.03_PT037H.grib2 2026-05-05 18:22 935K
20260505T12Z_MSC_CAPS_WindV_IsbL-0650_RLatLon0.03_PT037H.grib2 2026-05-05 18:22 971K
20260505T12Z_MSC_CAPS_WindV_IsbL-0700_RLatLon0.03_PT037H.grib2 2026-05-05 18:22 1.0M
20260505T12Z_MSC_CAPS_WindV_IsbL-0750_RLatLon0.03_PT037H.grib2 2026-05-05 18:22 1.1M
20260505T12Z_MSC_CAPS_WindV_IsbL-0800_RLatLon0.03_PT037H.grib2 2026-05-05 18:22 1.1M
20260505T12Z_MSC_CAPS_WindV_IsbL-0850_RLatLon0.03_PT037H.grib2 2026-05-05 18:22 1.2M
20260505T12Z_MSC_CAPS_WindV_IsbL-0875_RLatLon0.03_PT037H.grib2 2026-05-05 18:22 1.2M
20260505T12Z_MSC_CAPS_WindV_IsbL-0900_RLatLon0.03_PT037H.grib2 2026-05-05 18:22 1.3M
20260505T12Z_MSC_CAPS_WindV_IsbL-0925_RLatLon0.03_PT037H.grib2 2026-05-05 18:22 1.3M
20260505T12Z_MSC_CAPS_WindV_IsbL-0950_RLatLon0.03_PT037H.grib2 2026-05-05 18:22 1.4M
20260505T12Z_MSC_CAPS_WindV_IsbL-0970_RLatLon0.03_PT037H.grib2 2026-05-05 18:22 1.4M
20260505T12Z_MSC_CAPS_WindV_IsbL-0985_RLatLon0.03_PT037H.grib2 2026-05-05 18:22 1.8M
20260505T12Z_MSC_CAPS_WindV_IsbL-1000_RLatLon0.03_PT037H.grib2 2026-05-05 18:22 1.9M
20260505T12Z_MSC_CAPS_WindV_IsbL-1015_RLatLon0.03_PT037H.grib2 2026-05-05 18:22 2.0M